timestamp,surface_pressure_avg,surface_temp_avg,battery_voltage,lat,long
2018-04-28 00:00:00+00:00,300.1364,5.8,13.05,47.84626,-54.09684
2018-04-28 00:10:00+00:00,297.2614,5.7,12.97,47.84626,-54.09684
2018-04-28 00:20:00+00:00,294.8397,5.5,13.05,47.84626,-54.09684
2018-04-28 00:30:00+00:00,281.898,5.68,13.05,47.84626,-54.09684
2018-04-28 00:40:00+00:00,270.3514,5.86,13.05,47.84626,-54.09684
2018-04-28 00:50:00+00:00,269.8314,5.8,13.05,47.84626,-54.09684
2018-04-28 01:00:00+00:00,265.1197,5.8,13.05,47.84626,-54.09684
2018-04-28 01:10:00+00:00,252.2831,5.9,12.97,47.84626,-54.09684
2018-04-28 01:20:00+00:00,246.6397,5.92,13.05,47.84626,-54.09684
2018-04-28 01:30:00+00:00,244.0481,5.97,13.05,47.84626,-54.09684
2018-04-28 01:40:00+00:00,235.5514,5.99,13.05,47.84626,-54.09684
2018-04-28 01:50:00+00:00,225.9648,6.04,13.05,47.84626,-54.09684
2018-04-28 02:00:00+00:00,221.5381,6.1,12.97,47.84626,-54.09684
2018-04-28 02:10:00+00:00,216.1581,6.1,12.97,47.84626,-54.09684
2018-04-28 02:20:00+00:00,206.2964,6.1,12.97,47.84626,-54.09684
2018-04-28 02:30:00+00:00,197.5331,6.1,12.97,47.84626,-54.09684
2018-04-28 02:40:00+00:00,194.3281,6.0,13.05,47.84626,-54.09684
2018-04-28 02:50:00+00:00,193.3681,5.99,13.05,47.84626,-54.09684
2018-04-28 03:00:00+00:00,189.5515,6.08,12.97,47.84626,-54.09684
2018-04-28 03:10:00+00:00,185.8764,6.2,12.89,47.84626,-54.09684
2018-04-28 03:20:00+00:00,185.9031,6.2,12.97,47.84626,-54.09684
2018-04-28 03:30:00+00:00,186.1815,6.2,12.97,47.84626,-54.09684
2018-04-28 03:40:00+00:00,182.9081,6.2,12.97,47.84626,-54.09684
2018-04-28 03:50:00+00:00,181.3131,6.22,13.05,47.84626,-54.09684
2018-04-28 04:00:00+00:00,183.2398,6.2,12.97,47.84626,-54.09684
2018-04-28 04:10:00+00:00,182.7664,6.0,12.89,47.84626,-54.09684
2018-04-28 04:20:00+00:00,181.3698,6.0,12.97,47.84626,-54.09684
2018-04-28 04:30:00+00:00,182.1515,5.99,12.97,47.84626,-54.09684
2018-04-28 04:40:00+00:00,183.9198,6.05,12.97,47.84626,-54.09684
2018-04-28 04:50:00+00:00,184.0781,6.12,12.97,47.84626,-54.09684
2018-04-28 05:00:00+00:00,182.8765,6.23,12.97,47.84626,-54.09684
2018-04-28 05:10:00+00:00,187.0398,6.2,12.89,47.84626,-54.09684
2018-04-28 05:20:00+00:00,194.5347,5.91,12.97,47.84626,-54.09684
2018-04-28 05:30:00+00:00,195.9148,6.07,12.97,47.84626,-54.09684
2018-04-28 05:40:00+00:00,198.0281,6.0,12.97,47.84626,-54.09684
2018-04-28 05:50:00+00:00,201.0098,5.7,12.97,47.84626,-54.09684
2018-04-28 06:00:00+00:00,202.2131,5.89,12.97,47.84626,-54.09684
2018-04-28 06:10:00+00:00,209.4065,5.9,12.89,47.84626,-54.09684
2018-04-28 06:20:00+00:00,215.4947,5.64,12.97,47.84626,-54.09684
2018-04-28 06:30:00+00:00,216.3598,5.68,12.97,47.84626,-54.09684
2018-04-28 06:40:00+00:00,223.3265,5.7,12.97,47.84626,-54.09684
2018-04-28 06:50:00+00:00,233.1747,5.7,12.97,47.84626,-54.09684
2018-04-28 07:00:00+00:00,237.7914,5.7,12.97,47.84626,-54.09684
2018-04-28 07:10:00+00:00,241.9864,5.7,12.89,47.84626,-54.09684
2018-04-28 07:20:00+00:00,249.5114,5.7,12.97,47.84626,-54.09684
2018-04-28 07:30:00+00:00,258.8264,5.69,12.97,47.84626,-54.09684
2018-04-28 07:40:00+00:00,263.9381,5.7,12.97,47.84626,-54.09684
2018-04-28 07:50:00+00:00,271.6381,5.6,12.97,47.84626,-54.09684
2018-04-28 08:00:00+00:00,281.5547,5.4,12.89,47.84626,-54.09684
2018-04-28 08:10:00+00:00,289.3663,5.36,12.89,47.84626,-54.09684
2018-04-28 08:20:00+00:00,292.473,5.21,12.97,47.84626,-54.09684
2018-04-28 08:30:00+00:00,301.6714,5.3,12.97,47.84626,-54.09684
2018-04-28 08:40:00+00:00,311.8663,5.3,12.97,47.84626,-54.09684
2018-04-28 08:50:00+00:00,318.3497,4.93,12.97,47.84626,-54.09684
2018-04-28 09:00:00+00:00,322.7463,4.9,12.89,47.84626,-54.09684
2018-04-28 09:10:00+00:00,331.868,4.6,12.89,47.84626,-54.09684
2018-04-28 09:20:00+00:00,337.558,4.5,12.97,47.84626,-54.09684
2018-04-28 09:30:00+00:00,340.8247,4.4,12.97,47.84626,-54.09684
2018-04-28 09:40:00+00:00,345.6162,4.2,12.97,47.84626,-54.09684
2018-04-28 09:50:00+00:00,350.1646,4.3,12.97,47.84626,-54.09684
2018-04-28 10:00:00+00:00,351.688,4.27,12.97,47.84626,-54.09684
2018-04-28 10:10:00+00:00,352.8829,4.2,12.89,47.84626,-54.09684
2018-04-28 10:20:00+00:00,356.113,4.1,12.97,47.84626,-54.09684
2018-04-28 10:30:00+00:00,360.6796,4.4,13.05,47.84626,-54.09684
2018-04-28 10:40:00+00:00,358.7946,4.5,13.05,47.84626,-54.09684
2018-04-28 10:50:00+00:00,359.688,4.2,13.13,47.84626,-54.09684
2018-04-28 11:00:00+00:00,366.0213,4.31,13.13,47.84626,-54.09684
2018-04-28 11:10:00+00:00,363.5613,4.6,13.13,47.84626,-54.09684
2018-04-28 11:20:00+00:00,355.8813,4.34,13.21,47.84626,-54.09684
2018-04-28 11:30:00+00:00,351.7429,4.18,13.29,47.84626,-54.09684
2018-04-28 11:40:00+00:00,354.2146,4.25,13.37,47.84626,-54.09684
2018-04-28 11:50:00+00:00,346.8679,4.33,13.44,47.84626,-54.09684
2018-04-28 12:00:00+00:00,338.193,4.38,13.53,47.84626,-54.09684
2018-04-28 12:10:00+00:00,335.3346,4.5,13.44,47.84626,-54.09684
2018-04-28 12:20:00+00:00,335.5413,4.49,13.6,47.84626,-54.09684
2018-04-28 12:30:00+00:00,334.6346,4.7,13.68,47.84626,-54.09684
2018-04-28 12:40:00+00:00,326.7281,4.5,13.84,47.84626,-54.09684
2018-04-28 12:50:00+00:00,321.7096,4.83,14.0,47.84626,-54.09684
2018-04-28 13:00:00+00:00,311.1547,4.9,14.08,47.84626,-54.09684
2018-04-28 13:10:00+00:00,298.7464,4.83,14.16,47.84626,-54.09684
2018-04-28 13:20:00+00:00,293.4297,4.9,15.35,47.84626,-54.09684
2018-04-28 13:30:00+00:00,285.3563,5.17,14.72,47.84626,-54.09684
2018-04-28 13:40:00+00:00,274.2348,5.25,15.2,47.84626,-54.09684
2018-04-28 13:50:00+00:00,260.9864,5.3,14.4,47.84626,-54.09684
2018-04-28 14:00:00+00:00,251.0148,5.34,14.24,47.84626,-54.09684
2018-04-28 14:10:00+00:00,240.2114,5.5,14.24,47.84626,-54.09684
2018-04-28 14:20:00+00:00,233.7248,5.56,14.64,47.84626,-54.09684
2018-04-28 14:30:00+00:00,225.5748,5.6,14.64,47.84626,-54.09684
2018-04-28 14:40:00+00:00,217.5497,5.6,14.4,47.84626,-54.09684
2018-04-28 14:50:00+00:00,212.5931,5.6,14.32,47.84626,-54.09684
2018-04-28 15:00:00+00:00,211.3948,5.5,14.16,47.84626,-54.09684
2018-04-28 15:10:00+00:00,204.9698,5.57,14.0,47.84626,-54.09684
2018-04-28 15:20:00+00:00,197.0414,5.5,14.08,47.84626,-54.09684
2018-04-28 15:30:00+00:00,188.5931,5.51,14.0,47.84626,-54.09684
2018-04-28 15:40:00+00:00,181.8098,5.6,14.0,47.84626,-54.09684
2018-04-28 15:50:00+00:00,184.6198,5.6,14.0,47.84626,-54.09684
2018-04-28 16:00:00+00:00,185.7864,5.6,13.84,47.84626,-54.09684
2018-04-28 16:10:00+00:00,178.9998,5.65,13.76,47.84626,-54.09684
2018-04-28 16:20:00+00:00,177.1515,5.68,13.84,47.84626,-54.09684
2018-04-28 16:30:00+00:00,179.4814,5.66,13.92,47.84626,-54.09684
2018-04-28 16:40:00+00:00,180.7082,5.64,13.92,47.84626,-54.09684
2018-04-28 16:50:00+00:00,183.3731,5.6,14.0,47.84626,-54.09684
2018-04-28 17:00:00+00:00,188.4931,5.5,13.92,47.84626,-54.09684
2018-04-28 17:10:00+00:00,193.6731,5.3,13.76,47.84626,-54.09684
2018-04-28 17:20:00+00:00,193.5281,5.1,13.76,47.84626,-54.09684
2018-04-28 17:30:00+00:00,189.7048,5.05,13.76,47.84626,-54.09684
2018-04-28 17:40:00+00:00,193.5348,4.9,13.84,47.84626,-54.09684
2018-04-28 17:50:00+00:00,204.2248,4.7,13.84,47.84626,-54.09684
2018-04-28 18:00:00+00:00,206.6515,4.6,13.76,47.84626,-54.09684
2018-04-28 18:10:00+00:00,208.2664,4.56,13.68,47.84626,-54.09684
2018-04-28 18:20:00+00:00,218.1048,4.6,13.68,47.84626,-54.09684
2018-04-28 18:30:00+00:00,226.4181,4.5,13.76,47.84626,-54.09684
2018-04-28 18:40:00+00:00,228.4264,4.45,13.76,47.84626,-54.09684
2018-04-28 18:50:00+00:00,229.0698,4.6,13.84,47.84626,-54.09684
2018-04-28 19:00:00+00:00,234.6614,4.6,13.68,47.84626,-54.09684
2018-04-28 19:10:00+00:00,238.4647,4.4,13.6,47.84626,-54.09684
2018-04-28 19:20:00+00:00,242.2564,4.32,13.6,47.84626,-54.09684
2018-04-28 19:30:00+00:00,245.0398,4.3,13.68,47.84626,-54.09684
2018-04-28 19:40:00+00:00,250.0631,4.2,13.6,47.84626,-54.09684
2018-04-28 19:50:00+00:00,254.0864,4.2,13.6,47.84626,-54.09684
2018-04-28 20:00:00+00:00,259.3714,4.15,13.53,47.84626,-54.09684
2018-04-28 20:10:00+00:00,267.7681,4.15,13.37,47.84626,-54.09684
2018-04-28 20:20:00+00:00,277.2081,4.1,13.37,47.84626,-54.09684
2018-04-28 20:30:00+00:00,285.4264,4.0,13.37,47.84626,-54.09684
2018-04-28 20:40:00+00:00,292.0397,3.96,13.37,47.84626,-54.09684
2018-04-28 20:50:00+00:00,300.033,3.9,13.37,47.84626,-54.09684
2018-04-28 21:00:00+00:00,308.903,3.8,13.29,47.84626,-54.09684
2018-04-28 21:10:00+00:00,319.2614,3.71,13.21,47.84626,-54.09684
2018-04-28 21:20:00+00:00,325.403,3.79,13.21,47.84626,-54.09684
2018-04-28 21:30:00+00:00,332.7897,3.8,13.21,47.84626,-54.09684
2018-04-28 21:40:00+00:00,336.903,3.76,13.21,47.84626,-54.09684
2018-04-28 21:50:00+00:00,344.8297,3.7,13.21,47.84626,-54.09684
2018-04-28 22:00:00+00:00,351.3779,3.7,13.13,47.84626,-54.09684
2018-04-28 22:10:00+00:00,347.4263,3.7,13.05,47.84626,-54.09684
2018-04-28 22:20:00+00:00,354.793,3.7,13.13,47.84626,-54.09684
2018-04-28 22:30:00+00:00,360.5829,3.7,13.13,47.84626,-54.09684
2018-04-28 22:40:00+00:00,362.9796,3.77,13.13,47.84626,-54.09684
2018-04-28 22:50:00+00:00,355.118,3.8,13.13,47.84626,-54.09684
2018-04-28 23:00:00+00:00,353.3913,3.8,13.05,47.84626,-54.09684
2018-04-28 23:10:00+00:00,360.478,3.7,12.97,47.84626,-54.09684
2018-04-28 23:20:00+00:00,351.0612,3.8,13.05,47.84626,-54.09684
2018-04-28 23:30:00+00:00,343.913,3.8,13.05,47.84626,-54.09684
2018-04-28 23:40:00+00:00,349.8129,3.7,13.05,47.84626,-54.09684
2018-04-28 23:50:00+00:00,344.9663,3.7,13.05,47.84626,-54.09684
